Powrót do katalogu

ORBCOMM FM 5

AktywnyŁącznośćLEO
NORAD 25117·PAYLOAD·🇺🇸 United States

Wystrzelony Dec 23, 1997 z Cape Canaveral Space Force Station

Loading…

Następne Przeloty (najbliższe 24 godziny)

TLE

ŚwieżeSource: Space-Track

Epoka: Sep 14, 2026, 15:05 UTC

1 25117U 97084F   26257.62884024  .00000781  00000-0  24944-3 0  9992
2 25117  45.0159 342.9620 0001475 279.8962  80.1723 14.47538816506423

Śledź ORBCOMM FM 5 w czasie rzeczywistym z AllMySat

Download on the App Store